Weather History for KOLZ - December, 2012

Change the Weather History Date:

Sunday, December 2, 2012

  Actual Average (KALO) Record (KALO)
Temperature  
Mean Temperature 47 °F 27 °F  
Max Temperature 59 °F 36 °F 65 °F (1973)
Min Temperature 35 °F 18 °F -16 °F (1985)
Degree Days  
Heating Degree Days 18 38  
Month to date heating degree days 75  
Since 1 July heating degree days 1558  
Cooling Degree Days 0 0  
Month to date cooling degree days 0  
Year to date cooling degree days 799  
Moisture  
Dew Point 42 °F    
Average Humidity 85    
Maximum Humidity 100    
Minimum Humidity 51    
Precipitation  
Precipitation 0.00 in 0.05 in 0.55 in (1945)
Month to date precipitation 0.10  
Year to date precipitation 33.50  
Snow  
Snow 0.00 in 0.30 in 2.40 in (1978)
Month to date snowfall 0.6  
Since 1 July snowfall 4.0  
Snow Depth -    
Sea Level Pressure  
Sea Level Pressure 29.94 in    
Wind  
Wind Speed 5 mph (SSW)    
Max Wind Speed 14 mph    
Max Gust Speed -    
Visibility 4 miles    
Events Fog    
T = Trace of Precipitation, MM = Missing Value Source: NWS Daily Summary

Daily Weather History Graph

Daily Weather History Graph

Search for Another Location

Airport or City:

Trip Planner

Search our weather history database for the weather conditions in past years. The results will help you decide how hot, cold, wet, or windy it might be!

Date:

Astronomy

Dec. 02, 2012 Rise Set
Actual Time 7:20 AM CST 4:34 PM CST
Civil Twilight 6:48 AM CST 5:06 PM CST
Nautical Twilight 6:13 AM CST 5:41 PM CST
Astronomical Twilight 5:39 AM CST 6:15 PM CST
Moon 8:25 PM CST (12/2) 10:08 AM CST (12/2)
Length of Visible Light 10h 18m
Length of Day
9h 14m
Waning Gibbous, 85% of the Moon is Illuminated
Dec 2
Waning Gibbous
Dec 6
Last Quarter
Dec 13
New
Dec 19
First Quarter
Dec 28
Full

Hourly Weather History & Observations

Time (CST) Temp. Windchill Dew Point Humidity Pressure Visibility Wind Dir Wind Speed Gust Speed Precip Events Conditions
12:15 AM 50.0 °F - 48.2 °F 94% 29.84 in 0.2 mi SSW 5.8 mph - N/A Fog Fog
12:35 AM 50.0 °F - 50.0 °F 100% 29.85 in 0.2 mi WSW 4.6 mph - N/A Fog Fog
12:55 AM 50.0 °F - 50.0 °F 100% 29.85 in 0.2 mi SW 4.6 mph - N/A Fog Fog
1:15 AM 50.0 °F - 50.0 °F 100% 29.85 in 0.2 mi West 4.6 mph - N/A Fog Fog
1:35 AM 50.0 °F - 50.0 °F 100% 29.85 in 0.2 mi WNW 4.6 mph - N/A Fog Fog
1:55 AM 50.0 °F - 50.0 °F 100% 29.86 in 0.2 mi NW 4.6 mph - N/A Fog Fog
2:15 AM 50.0 °F - 50.0 °F 100% 29.86 in 0.5 mi NW 5.8 mph - N/A Fog Fog
2:35 AM 50.0 °F - 50.0 °F 100% 29.87 in 1.5 mi NW 6.9 mph - N/A   Scattered Clouds
2:55 AM 50.0 °F - 50.0 °F 100% 29.87 in 1.5 mi NW 6.9 mph - N/A   Mist
3:15 AM 50.0 °F - 50.0 °F 100% 29.88 in 2.5 mi NW 8.1 mph - N/A   Mist
3:35 AM 48.2 °F - 46.4 °F 93% 29.88 in 3.0 mi NW 4.6 mph - N/A   Clear
3:55 AM 44.6 °F 41.4 °F 44.6 °F 100% 29.89 in 1.5 mi NW 5.8 mph - N/A   Mist
4:15 AM 44.6 °F 42.2 °F 42.8 °F 93% 29.89 in 0.8 mi NW 4.6 mph - N/A   Mostly Cloudy
4:35 AM 44.6 °F 41.4 °F 44.6 °F 100% 29.90 in 0.2 mi NNW 5.8 mph - N/A Fog Fog
4:55 AM 44.6 °F 41.4 °F 44.6 °F 100% 29.91 in 0.2 mi NW 5.8 mph - N/A Fog Fog
5:15 AM 44.6 °F 40.7 °F 44.6 °F 100% 29.91 in 0.2 mi NW 6.9 mph - N/A Fog Fog
5:35 AM 42.8 °F 40.1 °F 42.8 °F 100% 29.92 in 0.2 mi NNW 4.6 mph - N/A Fog Fog
5:55 AM 42.8 °F 40.1 °F 42.8 °F 100% 29.93 in 0.2 mi NNW 4.6 mph - N/A   Unknown
6:15 AM 42.8 °F 40.1 °F 41.0 °F 93% 29.93 in 0.2 mi NNW 4.6 mph - N/A   Unknown
6:35 AM 41.0 °F 38.0 °F 41.0 °F 100% 29.94 in 0.2 mi NW 4.6 mph - N/A   Unknown
6:55 AM 39.2 °F - 37.4 °F 93% 29.95 in 0.2 mi Calm Calm - N/A Fog Fog
7:15 AM 37.4 °F 34.9 °F 37.4 °F 100% 29.96 in 0.2 mi NW 3.5 mph - N/A Fog Fog
7:35 AM 37.4 °F 34.9 °F 35.6 °F 93% 29.97 in 0.2 mi NNW 3.5 mph - N/A Fog Fog
7:55 AM 35.6 °F - 35.6 °F 100% 29.97 in 0.2 mi Calm Calm - N/A Fog Fog
8:15 AM 35.6 °F - 35.6 °F 100% 29.99 in 0.2 mi Calm Calm - N/A Fog Fog
8:35 AM 37.4 °F - 35.6 °F 93% 29.99 in 0.2 mi Calm Calm - N/A Fog Fog
8:55 AM 39.2 °F - 39.2 °F 100% 29.99 in 0.2 mi Calm Calm - N/A Fog Fog
9:15 AM 39.2 °F - 37.4 °F 93% 29.99 in 0.2 mi Calm Calm - N/A Fog Fog
9:35 AM 41.0 °F - 41.0 °F 100% 29.99 in 0.5 mi Calm Calm - N/A Fog Fog
10:15 AM 44.6 °F 43.1 °F 44.6 °F 100% 30.01 in 3.0 mi WNW 3.5 mph - N/A   Scattered Clouds
10:35 AM 46.4 °F 45.2 °F 44.6 °F 93% 30.01 in 4.0 mi NNW 3.5 mph - N/A   Clear
10:55 AM 48.2 °F - 46.4 °F 93% 30.01 in 5.0 mi NNW 3.5 mph - N/A   Clear
11:15 AM 50.0 °F - 42.8 °F 76% 30.01 in 7.0 mi Calm Calm - N/A   Clear
11:35 AM 50.0 °F - 42.8 °F 76% 30.00 in 7.0 mi Calm Calm - N/A   Clear
11:55 AM 51.8 °F - 42.8 °F 71% 29.99 in 7.0 mi Calm Calm - N/A   Clear
12:15 PM 51.8 °F - 42.8 °F 71% 29.99 in 7.0 mi Calm Calm - N/A   Clear
12:35 PM 53.6 °F - 41.0 °F 62% 29.97 in 10.0 mi Calm Calm - N/A   Clear
12:55 PM 55.4 °F - 41.0 °F 58% 29.97 in 10.0 mi Calm Calm - N/A   Clear
1:15 PM 55.4 °F - 41.0 °F 58% 29.97 in 10.0 mi Calm Calm - N/A   Clear
1:35 PM 57.2 °F - 41.0 °F 55% 29.96 in 10.0 mi Calm Calm - N/A   Clear
1:55 PM 57.2 °F - 41.0 °F 55% 29.96 in 10.0 mi Calm Calm - N/A   Clear
2:15 PM 59.0 °F - 41.0 °F 51% 29.96 in 10.0 mi Calm Calm - N/A   Clear
2:35 PM 59.0 °F - 41.0 °F 51% 29.95 in 10.0 mi Calm Calm - N/A   Clear
2:55 PM 57.2 °F - 41.0 °F 55% 29.95 in 10.0 mi SSE 3.5 mph - N/A   Clear
3:15 PM 57.2 °F - 41.0 °F 55% 29.94 in 10.0 mi South 4.6 mph - N/A   Clear
3:35 PM 55.4 °F - 41.0 °F 58% 29.94 in 10.0 mi South 6.9 mph - N/A   Clear
3:55 PM 55.4 °F - 42.8 °F 63% 29.94 in 10.0 mi South 5.8 mph - N/A   Clear
4:15 PM 53.6 °F - 41.0 °F 62% 29.96 in 10.0 mi Calm Calm - N/A   Clear
4:35 PM 51.8 °F - 41.0 °F 67% 29.97 in 10.0 mi South 4.6 mph - N/A   Clear
4:55 PM 48.2 °F - 37.4 °F 66% 29.97 in 10.0 mi South 4.6 mph - N/A   Clear
5:15 PM 48.2 °F - 39.2 °F 71% 29.99 in 10.0 mi South 3.5 mph - N/A   Clear
5:35 PM 48.2 °F - 39.2 °F 71% 29.98 in 10.0 mi SSE 4.6 mph - N/A   Clear
5:55 PM 46.4 °F 45.2 °F 37.4 °F 71% 29.99 in 10.0 mi SE 3.5 mph - N/A   Clear
6:15 PM 46.4 °F 42.9 °F 39.2 °F 76% 29.98 in 10.0 mi SSE 6.9 mph - N/A   Clear
6:35 PM 42.8 °F 38.0 °F 37.4 °F 81% 29.97 in 10.0 mi SE 8.1 mph - N/A   Clear
6:55 PM 42.8 °F 37.5 °F 37.4 °F 81% 29.96 in 10.0 mi SE 9.2 mph - N/A   Clear
7:15 PM 41.0 °F 35.8 °F 37.4 °F 87% 29.97 in 10.0 mi ESE 8.1 mph - N/A   Clear
7:35 PM 42.8 °F 38.6 °F 37.4 °F 81% 29.95 in 10.0 mi ESE 6.9 mph - N/A   Clear
7:55 PM 42.8 °F 37.5 °F 37.4 °F 81% 29.94 in 10.0 mi SE 9.2 mph - N/A   Clear
8:15 PM 44.6 °F 39.2 °F 39.2 °F 81% 29.94 in 7.0 mi SE 10.4 mph - N/A   Clear
8:35 PM 44.6 °F 39.2 °F 41.0 °F 87% 29.94 in 7.0 mi SE 10.4 mph - N/A   Clear
8:55 PM 46.4 °F 40.4 °F 42.8 °F 87% 29.94 in 7.0 mi SE 13.8 mph - N/A   Clear
9:15 PM 44.6 °F 38.1 °F 42.8 °F 93% 29.92 in 5.0 mi SE 13.8 mph - N/A   Clear
9:35 PM 44.6 °F 38.8 °F 42.8 °F 93% 29.93 in 3.0 mi SSE 11.5 mph - N/A   Clear
9:55 PM 44.6 °F 38.8 °F 44.6 °F 100% 29.93 in 2.5 mi SSE 11.5 mph - N/A   Clear
10:15 PM 44.6 °F 39.2 °F 42.8 °F 93% 29.92 in 1.8 mi SSE 10.4 mph - N/A   Mist
10:35 PM 44.6 °F 39.2 °F 42.8 °F 93% 29.92 in 1.2 mi SE 10.4 mph - N/A   Mostly Cloudy
10:55 PM 44.6 °F 39.7 °F 42.8 °F 93% 29.92 in 0.8 mi SSE 9.2 mph - N/A   Overcast
11:15 PM 44.6 °F 40.2 °F 44.6 °F 100% 29.93 in 0.8 mi SSE 8.1 mph - N/A   Overcast
11:35 PM 46.4 °F 41.1 °F 44.6 °F 93% 29.92 in 0.8 mi SSE 11.5 mph - N/A   Overcast
11:36 PM 46.4 °F 41.5 °F 46.4 °F 100% 29.92 in 0.8 mi SSE 10.4 mph - N/A   Overcast
11:55 PM 46.4 °F 41.9 °F 44.6 °F 93% 29.92 in 0.2 mi SSE 9.2 mph - N/A Fog Fog